[[{"header":{"parameterUnit":"m.s-1","parameterCategory":1,"la1":30.2992,"la2":30.254,"lo1":-89.0895,"lo2":-89.0443,"dy":0.0025,"dx":0.0025,"nx":19,"ny":19,"refTime":"2026-03-26T21:00:00:Z","depth":0,"parameterNumber":2,"parameterNumberName":"U-component_of_WINDS"},"data":[0,0,0,2.3607,2.3612,2.3857,2.3858,2.4178,2.4181,0,0,0,0,0,0,0,0,0,0,0,2.3534,2.3536,2.3606,2.3613,2.3857,2.3859,2.4177,2.4181,0,0,0,0,0,0,0,0,0,0,0,2.3533,2.3536,2.3538,2.3614,2.3857,2.3859,2.4177,2.399,0,0,0,0,0,0,0,0,0,0,2.3752,2.3683,2.3535,2.3538,2.3615,2.3857,2.3859,2.3981,2.4002,2.4068,0,2.4124,0,2.4157,2.4202,2.4203,0,0,0,2.3613,2.3666,2.3732,2.3539,2.3617,2.3857,2.3747,2.3993,2.4016,2.4096,2.4129,2.414,2.4163,2.4204,2.4206,2.4582,2.4584,0,0,2.36,2.3578,2.3716,2.3747,2.3706,2.3739,2.3755,2.4007,2.4042,2.413,2.4148,2.4168,2.4206,2.4209,2.4581,2.4583,0,0,0,2.356,2.3569,2.3629,2.3734,2.3778,2.3746,2.3764,2.4031,2.4052,2.4151,2.4172,2.4208,2.4212,2.4579,2.4581,2.4646,0,0,0,2.3552,2.3546,2.3623,2.3612,2.3773,2.3907,2.3783,2.4035,2.4064,2.417,2.4208,2.4215,2.4577,2.458,2.464,2.4681,0,0,0,2.3518,2.3542,2.3577,2.3611,2.3715,2.3903,2.3939,2.4042,2.4077,2.4204,2.4216,2.4575,2.4579,2.4635,2.4672,2.4776,0,0,0,2.3476,2.363,2.3578,2.3759,2.3713,2.3941,2.3937,2.4108,2.4225,2.421,2.4577,2.4581,2.4634,2.4667,2.477,2.4859,2.4893,0,0,2.3658,2.3651,2.3759,2.372,2.3951,2.3905,2.4148,2.4275,2.4307,2.449,2.4499,2.4642,2.4671,2.4774,2.5095,2.5122,0,0,0,2.381,2.3888,2.3954,2.4063,2.4165,2.4257,2.4349,2.4398,2.4554,2.4395,2.4708,2.4726,2.4787,2.4831,2.4855,2.491,2.46,2.46,2.4599,2.4035,2.407,2.4253,2.4319,2.4426,2.4523,2.4615,2.4697,2.4698,2.4773,2.4826,2.5017,2.5067,2.5085,2.5142,2.4876,2.4876,2.4877,2.4877,2.4307,2.4423,2.4427,2.4605,2.4643,2.4795,2.4897,2.4894,2.5044,2.4977,2.5033,2.4958,2.5114,2.5166,2.4882,2.4881,2.4881,2.488,2.488,2.4458,2.4521,2.4578,2.4744,2.487,2.4933,2.5078,2.5107,2.5135,2.5191,2.5254,2.5253,2.5257,2.5219,2.522,2.522,2.5221,2.5221,2.5222,2.4593,2.4656,2.4772,2.4898,2.4975,2.5082,2.5186,2.5264,2.5359,2.537,2.537,2.5368,2.5122,2.506,2.5232,2.523,2.5229,2.5228,2.5227,2.4855,2.4802,2.4982,2.5061,2.5214,2.534,2.5377,2.5536,2.5606,2.5678,2.5666,2.5478,2.5473,2.5455,2.5404,2.5655,2.5655,2.5655,2.5655,2.4984,2.4985,2.5179,2.5303,2.5429,2.5482,2.5692,2.5778,2.5858,2.5905,2.5873,2.5808,2.5788,2.5795,2.577,2.5723,2.6049,2.605,2.605,2.5149,2.5164,2.5333,2.541,2.5534,2.5641,2.5841,2.5988,2.6068,2.6067,2.5943,2.5926,2.5822,2.5786,2.5779,2.5738,2.5653,0,0]},{"header":{"parameterUnit":"m.s-1","parameterCategory":1,"la1":30.2992,"la2":30.254,"lo1":-89.0895,"lo2":-89.0443,"dy":0.0025,"dx":0.0025,"nx":19,"ny":19,"refTime":"2026-03-26T21:00:00:Z","depth":0,"parameterNumber":3,"parameterNumberName":"V-component_of_WINDS"},"data":[0,0,0,-4.4581,-4.4578,-4.4471,-4.4471,-4.4298,-4.4296,0,0,0,0,0,0,0,0,0,0,0,-4.4601,-4.4599,-4.4581,-4.4578,-4.4471,-4.4471,-4.4298,-4.4296,0,0,0,0,0,0,0,0,0,0,0,-4.4601,-4.46,-4.4598,-4.4578,-4.4471,-4.4471,-4.4298,-4.4389,0,0,0,0,0,0,0,0,0,0,-4.4498,-4.4508,-4.46,-4.4598,-4.4577,-4.4471,-4.4471,-4.4394,-4.4384,-4.4334,0,-4.4296,0,-4.4294,-4.4283,-4.4282,0,0,0,-4.4583,-4.4517,-4.45,-4.4598,-4.4576,-4.4471,-4.4521,-4.4389,-4.4377,-4.432,-4.4294,-4.4288,-4.4291,-4.4282,-4.4281,-4.4,-4.3998,0,0,-4.4589,-4.4572,-4.4509,-4.4492,-4.4518,-4.4524,-4.4517,-4.4382,-4.4348,-4.4293,-4.4285,-4.4288,-4.428,-4.4279,-4.4001,-4.3999,0,0,0,-4.4603,-4.4576,-4.4563,-4.4499,-4.4483,-4.4521,-4.4513,-4.4354,-4.4352,-4.4283,-4.4286,-4.4279,-4.4277,-4.4003,-4.4001,-4.3908,0,0,0,-4.4607,-4.4584,-4.4566,-4.4554,-4.4485,-4.4419,-4.4488,-4.4361,-4.4347,-4.4287,-4.4279,-4.4275,-4.4005,-4.4002,-4.3914,-4.3863,0,0,0,-4.4611,-4.4585,-4.4567,-4.4553,-4.4508,-4.4422,-4.4412,-4.4359,-4.4348,-4.4282,-4.4275,-4.4006,-4.4002,-4.392,-4.3872,-4.3782,0,0,0,-4.4609,-4.4481,-4.4565,-4.4424,-4.4509,-4.437,-4.4413,-4.4308,-4.4241,-4.4278,-4.4005,-4.4001,-4.3922,-4.3878,-4.3788,-4.3699,-4.3663,0,0,-4.4437,-4.446,-4.4378,-4.445,-4.4294,-4.4388,-4.4213,-4.4163,-4.4167,-4.4052,-4.4046,-4.3912,-4.3873,-4.3783,-4.3475,-4.3446,0,0,0,-4.4318,-4.4258,-4.422,-4.4161,-4.4127,-4.4089,-4.407,-4.4051,-4.3957,-4.4109,-4.3858,-4.3835,-4.3783,-4.374,-4.3716,-4.3669,-4.3983,-4.3983,-4.3984,-4.4044,-4.4066,-4.393,-4.3939,-4.388,-4.3864,-4.3814,-4.3784,-4.3817,-4.3758,-4.3721,-4.3533,-4.3484,-4.3465,-4.3416,-4.3681,-4.3681,-4.3681,-4.368,-4.379,-4.3706,-4.3762,-4.365,-4.367,-4.3572,-4.355,-4.3577,-4.3482,-4.3562,-4.3516,-4.3595,-4.3433,-4.339,-4.3674,-4.3675,-4.3676,-4.3676,-4.3677,-4.3608,-4.3571,-4.3559,-4.3477,-4.3408,-4.3419,-4.3329,-4.335,-4.3366,-4.3323,-4.3283,-4.3285,-4.3283,-4.3305,-4.3304,-4.3303,-4.3303,-4.3302,-4.3302,-4.3421,-4.341,-4.3336,-4.3294,-4.3258,-4.3214,-4.3199,-4.3161,-4.3122,-4.3143,-4.3143,-4.3176,-4.3418,-4.3474,-4.3291,-4.3293,-4.3295,-4.3296,-4.3296,-4.3143,-4.3211,-4.3097,-4.3063,-4.3012,-4.2941,-4.2974,-4.2895,-4.2866,-4.2819,-4.2866,-4.3044,-4.3064,-4.3083,-4.3129,-4.2868,-4.2868,-4.2868,-4.2867,-4.2983,-4.3001,-4.289,-4.2833,-4.278,-4.2799,-4.2658,-4.2645,-4.2638,-4.262,-4.2662,-4.2728,-4.2748,-4.2755,-4.2782,-4.2824,-4.2491,-4.2491,-4.249,-4.2811,-4.2825,-4.2706,-4.2713,-4.2676,-4.264,-4.2508,-4.2432,-4.2438,-4.2475,-4.2604,-4.262,-4.2726,-4.2761,-4.2792,-4.2833,-4.2913,0,0]}]]